Regional Weather Roundup
Issued by NWS

Home | Current Version | Previous Version | Text Only | Print | Product List | Glossary On
Versions: 1 2 3 4 5 6 7 8 9 10 11 12 13 14 15 16 17 18 19 20 21 22 23 24 25 26 27 28
000
ASCA42 TJSJ 242110
RWRPR
PUERTO RICO/U.S. VIRGIN ISLANDS HOURLY WEATHER ROUNDUP
NATIONAL WEATHER SERVICE SAN JUAN PR
500 PM AST FRI NOV 24 2017

PRZ001>002-007>008-010-242200-
PUERTO RICO

CITY           SKY/WX    TMP DP  RH WIND       PRES   REMARKS
SAN JUAN LMM   PTCLDY    82  79  89 E16       29.90R HX  93
AGUADILLA      PTSUNNY   81  75  83 E5        29.92R
$$

VIZ001>002-242200-
U.S. VIRGIN ISLANDS

CITY           SKY/WX    TMP DP  RH WIND       PRES   REMARKS
CHARLOTTE AMA    N/A    N/A N/A N/A MISG      29.91R
$$

HOURLY WEATHER ROUNDUP FOR THE NEWS MEDIA

CITY           SKY/WX    TMP DP  RH WIND       PRES   REMARKS
ORLANDO        CLOUDY    64  59  83 NW8       29.91R
NEW YORK       PTCLDY    46  30  53 S9        29.98F
NEWARK         PTCLDY    50  24  36 S8        29.96S
CHICAGO        MOSUNNY   63  38  39 S21G32    29.46F
HARTFORD       CLEAR     45  31  58 SW6       29.96S
BOSTON         PTCLDY    47  27  45 S13       29.93S
DALLAS         MOSUNNY   78  34  20 S14G23    29.80F
PHILADELPHIA   CLEAR     50  20  30 SW8       29.98S
LOS ANGELES    MOSUNNY   75  57  53 W10       29.88F
WASHINGTON DC  CLEAR     54  26  34 S7        29.96S



USA.gov is the U.S. government's official web portal to all federal, state and local government web resources and services.